TimeMST,TemperatureF,Dew PointF,Humidity,Sea Level PressureIn,VisibilityMPH,Wind Direction,Wind SpeedMPH,Gust SpeedMPH,PrecipitationIn,Events,Conditions,WindDirDegrees,DateUTC
12:53 AM,21.0,15.1,78,29.99,10.0,North,10.4,-,N/A,,Partly Cloudy,360,2013-02-08 07:53:00
1:53 AM,21.9,15.1,75,29.96,10.0,North,5.8,-,N/A,,Overcast,350,2013-02-08 08:53:00
2:53 AM,24.1,16.0,71,29.95,10.0,NNW,8.1,-,N/A,,Overcast,340,2013-02-08 09:53:00
3:53 AM,24.1,16.0,71,29.93,10.0,North,10.4,-,N/A,,Overcast,360,2013-02-08 10:53:00
4:53 AM,24.1,17.1,75,29.93,10.0,North,9.2,-,N/A,,Overcast,350,2013-02-08 11:53:00
5:53 AM,24.1,17.1,75,29.94,10.0,North,11.5,-,N/A,,Mostly Cloudy,10,2013-02-08 12:53:00
6:53 AM,25.0,16.0,69,29.92,10.0,NNE,10.4,-,N/A,,Mostly Cloudy,20,2013-02-08 13:53:00
7:53 AM,25.0,16.0,69,29.92,10.0,NNE,13.8,-,N/A,,Clear,20,2013-02-08 14:53:00
8:53 AM,25.0,16.0,69,29.92,10.0,NNE,8.1,-,N/A,,Clear,20,2013-02-08 15:53:00
9:53 AM,28.0,19.9,72,29.90,10.0,North,9.2,-,N/A,,Clear,360,2013-02-08 16:53:00
10:53 AM,30.9,21.0,67,29.87,10.0,North,12.7,-,N/A,,Clear,360,2013-02-08 17:53:00
11:53 AM,33.1,24.1,70,29.86,10.0,North,11.5,-,N/A,,Clear,10,2013-02-08 18:53:00
12:53 PM,34.0,24.1,67,29.83,10.0,North,10.4,-,N/A,,Overcast,10,2013-02-08 19:53:00
1:53 PM,34.0,25.0,70,29.83,10.0,WSW,4.6,-,N/A,,Overcast,250,2013-02-08 20:53:00
2:53 PM,34.0,27.0,75,29.81,10.0,Calm,Calm,-,N/A,,Overcast,0,2013-02-08 21:53:00
3:50 PM,35.6,28.4,75,29.74,1.0,SE,5.8,-,0.00,Snow,Snow,140,2013-02-08 22:50:00
3:53 PM,35.1,28.0,76,29.80,1.0,SSE,5.8,-,0.00,Snow,Snow,160,2013-02-08 22:53:00
4:53 PM,33.1,28.9,85,29.79,4.0,Calm,Calm,-,0.00,Snow,Light Snow,0,2013-02-08 23:53:00
5:53 PM,34.0,25.0,70,29.79,10.0,NE,5.8,-,0.00,,Overcast,40,2013-02-09 00:53:00
6:53 PM,33.1,25.0,72,29.79,10.0,NNE,12.7,-,N/A,,Overcast,20,2013-02-09 01:53:00
7:53 PM,33.1,24.1,70,29.79,10.0,North,11.5,-,N/A,,Overcast,360,2013-02-09 02:53:00
8:53 PM,32.0,23.0,69,29.79,10.0,North,11.5,-,N/A,,Overcast,10,2013-02-09 03:53:00
9:53 PM,30.0,21.0,69,29.78,10.0,North,16.1,-,N/A,,Clear,350,2013-02-09 04:53:00
10:53 PM,28.0,19.0,69,29.76,10.0,North,15.0,-,N/A,,Clear,360,2013-02-09 05:53:00
11:53 PM,27.0,17.1,66,29.75,10.0,North,18.4,-,N/A,,Clear,360,2013-02-09 06:53:00